Location: Newark
(39.6867°N, 100.6772°W)
Time: 20:24:51
(UTC+00:00)

Vanguard 1 - All Passes

Search period start: 13 October 2019 00:00
Search period end: 23 October 2019 00:00
Orbit: 653 x 3830 km, 34.3° (Epoch: 12 October)

Date Brightness Start Highest point End Pass type
(mag) Time Alt. Az. Time Alt. Az. Time Alt. Az.
13 Oct - 00:33:35 10° S 00:39:43 19° SE 00:48:18 10° E visible
13 Oct - 02:49:03 10° SW 02:59:37 55° SSE 03:18:19 10° E visible
13 Oct - 05:08:48 10° W 05:23:29 74° S 05:46:37 10° E visible
13 Oct - 07:30:50 10° W 07:49:38 64° SSW 08:12:30 10° SE visible
13 Oct - 09:55:49 10° W 10:14:45 36° SW 10:33:04 10° SSE visible
14 Oct - 00:52:44 10° S 00:59:56 26° SE 01:11:05 10° E visible
14 Oct - 03:09:39 10° WSW 03:20:35 62° SSE 03:40:08 10° E visible
14 Oct - 05:29:51 10° W 05:44:57 74° S 06:08:15 10° ESE visible
14 Oct - 07:52:09 10° W 08:10:59 57° SSW 08:33:18 10° SE visible
14 Oct - 10:18:11 10° W 10:35:31 29° SW 10:52:17 10° S visible
15 Oct - 01:12:29 10° SSW 01:20:17 34° SE 01:33:19 10° E visible
15 Oct - 03:30:23 10° WSW 03:41:41 67° SSE 04:01:57 10° E visible
15 Oct - 05:50:56 10° W 06:06:26 71° S 06:29:45 10° ESE visible
15 Oct - 08:13:35 10° W 08:32:13 50° SSW 08:53:49 10° SE visible
15 Oct - 10:41:17 10° W 10:56:11 22° SW 11:10:40 10° S visible
16 Oct - 01:32:37 10° SW 01:40:50 43° SE 01:55:18 10° E visible
16 Oct - 03:51:13 10° WSW 04:02:55 71° S 04:23:44 10° E visible
16 Oct - 06:12:03 10° W 06:27:53 67° SSW 06:51:06 10° ESE visible
16 Oct - 08:35:10 10° W 08:53:21 43° SW 09:13:58 10° SSE visible
16 Oct - 11:05:56 10° W 11:16:49 16° SW 11:27:29 10° SSW visible
16 Oct - 23:38:13 10° SSE 23:42:21 15° SE 23:47:40 10° E daylight
17 Oct - 01:52:59 10° SW 02:01:32 51° SSE 02:17:09 10° E visible
17 Oct - 04:12:09 10° W 04:24:13 73° S 04:45:29 10° E visible
17 Oct - 06:33:13 10° W 06:49:18 62° SSW 07:12:13 10° SE visible
17 Oct - 08:57:01 10° W 09:14:23 36° SW 09:33:40 10° SSE visible
17 Oct - 23:57:04 10° S 00:02:34 22° SE 00:10:37 10° E daylight
18 Oct - 02:13:33 10° SW 02:22:25 59° SSE 02:38:56 10° E visible
18 Oct - 04:33:06 10° W 04:45:35 72° S 05:07:09 10° ESE visible
18 Oct - 06:54:26 10° W 07:10:39 55° SSW 07:33:04 10° SE visible
18 Oct - 09:19:18 10° W 09:35:19 28° SW 09:52:48 10° S visible
19 Oct - 00:16:45 10° SSW 00:22:55 30° SE 00:32:51 10° E visible
19 Oct - 02:34:15 10° WSW 02:43:26 65° SSE 03:00:42 10° E visible
19 Oct - 04:54:06 10° W 05:06:57 69° S 05:28:43 10° ESE visible
19 Oct - 07:15:46 10° W 07:31:56 48° SSW 07:53:35 10° SE visible
19 Oct - 09:42:20 10° W 09:56:12 21° SW 10:11:02 10° S visible
20 Oct - 00:36:50 10° SSW 00:43:26 38° SSE 00:54:45 10° E visible
20 Oct - 02:55:02 10° WSW 03:04:33 69° S 03:22:28 10° E visible
20 Oct - 05:15:08 10° W 05:28:18 65° SSW 05:50:06 10° ESE visible
20 Oct - 07:37:17 10° W 07:53:08 41° SSW 08:13:44 10° SSE visible
20 Oct - 10:07:00 10° WSW 10:17:03 15° SW 10:27:35 10° SSW visible
20 Oct - 22:43:33 10° SE 22:45:21 11° SE 22:47:21 10° ESE daylight
21 Oct - 00:57:11 10° SW 01:04:06 47° SSE 01:16:31 10° E visible
21 Oct - 03:15:54 10° W 03:25:44 70° S 03:44:11 10° E visible
21 Oct - 05:36:13 10° W 05:49:38 59° SSW 06:11:15 10° SE visible
21 Oct - 07:59:04 10° W 08:14:17 34° SW 08:33:23 10° SSE visible
21 Oct - 23:01:38 10° S 23:05:37 18° SE 23:10:58 10° E daylight
22 Oct - 01:17:44 10° SW 01:24:55 55° SSE 01:38:12 10° E visible
22 Oct - 03:36:49 10° W 03:46:58 69° S 04:05:51 10° ESE visible
22 Oct - 05:57:23 10° W 06:10:57 52° SSW 06:32:07 10° SE visible
22 Oct - 08:21:19 10° W 08:35:22 26° SW 08:52:23 10° S visible
22 Oct - 23:21:10 10° SSW 23:26:00 25° SE 23:33:12 10° E daylight
